Location: Lanoux
(43.1180°N, 1.4255°E)
Time: 22:30:56
(UTC+00:00)

COSMOS 2455 - Pass Details

Date: 13 December 2025
Orbit: 898 x 910 km, 67.1° (Epoch: 21 January)

Event Time Altitude Azimuth Distance (km) Brightness Sun altitude
Rises 17:28:26 0° 172° (S) 3,512 6.1 -12.1°
Reaches altitude 10° 17:31:20 10° 160° (SSE) 2,578 5.2 -12.6°
Maximum altitude 17:36:05 25° 107° (ESE) 1,735 3.9 -13.4°
Enters shadow 17:38:34 19° 72° (ENE) 2,003 4.0 -13.9°
